User: anonymous
Location: Mactaquac Provincial Park
(45.9573°N, 66.8897°W)
Time: 03:33:15
(UTC-03:00)
Language:

Cosmos 1867 - Orbit

View from above orbital plane
View from above orbital plane
View from above satellite
View from above satellite

Ground track
Ground track

The orbit data is extracted from the following two-line orbital elements,

1 18187U 87060A   14212.63211205 -.00000017  00000-0  00000+0 0  1132
2 18187 065.0125 291.5821 0015342 258.8489 101.1350 14.31022231413528
Epoch (UTC): 31 July 2014 15:10:14
Eccentricity: 0.0015342
inclination: 65.0125°
perigee height: 777 km
apogee height: 799 km
right ascension of ascending node: 291.5821°
argument of perigee: 258.8489°
revolutions per day: 14.31022231
mean anomaly at epoch: 101.1350°
orbit number at epoch: 41352

The dashed part of the orbit path shows where the satellite is in the earth's shadow,  

DLR